Time,TemperatureF,DewpointF,PressureIn,WindDirection,WindDirectionDegrees,WindSpeedMPH,WindSpeedGustMPH,Humidity,HourlyPrecipIn,Conditions,Clouds,dailyrainin,SoftwareType,DateUTC
2013-05-08 00:02:00,54.0,52.0,30.26,SW,236,0.0,0.0,93,0.00,,,0.00,,2013-05-08 04:02:00,
2013-05-08 00:13:00,54.0,52.0,30.26,SW,236,0.0,0.0,93,0.00,,,0.00,,2013-05-08 04:13:00,
2013-05-08 00:23:00,54.0,52.0,30.25,SW,236,0.0,0.0,93,0.00,,,0.00,,2013-05-08 04:23:00,
2013-05-08 00:33:00,53.0,51.0,30.25,SW,236,0.0,0.0,93,0.00,,,0.00,,2013-05-08 04:33:00,
2013-05-08 00:43:00,53.0,51.0,30.25,SW,236,0.0,0.0,93,0.00,,,0.00,,2013-05-08 04:43:00,
2013-05-08 00:53:00,53.0,51.0,30.24,SW,236,0.0,0.0,94,0.00,,,0.00,,2013-05-08 04:53:00,
2013-05-08 01:02:00,54.0,52.0,30.24,SW,236,0.0,0.0,94,0.00,,,0.00,,2013-05-08 05:02:00,
2013-05-08 01:12:00,54.0,52.0,30.24,SW,236,0.0,0.0,94,0.00,,,0.00,,2013-05-08 05:12:00,
2013-05-08 01:22:00,54.0,52.0,30.23,SW,236,0.0,0.0,94,0.00,,,0.00,,2013-05-08 05:22:00,
2013-05-08 01:32:00,54.0,52.0,30.23,SW,236,0.0,0.0,94,0.00,,,0.00,,2013-05-08 05:32:00,
2013-05-08 01:42:00,54.0,52.0,30.23,SW,236,0.0,0.0,94,0.00,,,0.00,,2013-05-08 05:42:00,
2013-05-08 01:52:00,54.0,52.0,30.22,SW,236,0.0,0.0,94,0.00,,,0.00,,2013-05-08 05:52:00,
2013-05-08 02:02:00,54.0,52.0,30.22,SW,236,0.0,0.0,94,0.00,,,0.00,,2013-05-08 06:02:00,
2013-05-08 02:12:00,54.0,52.0,30.22,SW,236,0.0,0.0,94,0.00,,,0.00,,2013-05-08 06:12:00,
2013-05-08 02:22:00,54.0,52.0,30.22,SW,236,0.0,0.0,94,0.00,,,0.00,,2013-05-08 06:22:00,
2013-05-08 02:32:00,54.0,53.0,30.22,SW,236,0.0,0.0,95,0.00,,,0.00,,2013-05-08 06:32:00,
2013-05-08 02:42:00,54.0,53.0,30.22,SW,236,0.0,0.0,95,0.00,,,0.00,,2013-05-08 06:42:00,
2013-05-08 02:52:00,53.0,52.0,30.21,SW,236,0.0,0.0,95,0.00,,,0.00,,2013-05-08 06:52:00,
2013-05-08 03:02:00,52.0,51.0,30.21,SW,236,0.0,0.0,95,0.00,,,0.00,,2013-05-08 07:02:00,
2013-05-08 03:11:00,52.0,51.0,30.21,SW,236,0.0,0.0,95,0.00,,,0.00,,2013-05-08 07:11:00,
2013-05-08 03:22:00,52.0,51.0,30.21,SW,236,0.0,0.0,95,0.00,,,0.00,,2013-05-08 07:22:00,
2013-05-08 03:32:00,52.0,51.0,30.22,SW,236,0.0,0.0,95,0.00,,,0.00,,2013-05-08 07:32:00,
2013-05-08 03:42:00,52.0,51.0,30.22,SW,236,0.0,0.0,95,0.00,,,0.00,,2013-05-08 07:42:00,
2013-05-08 03:52:00,51.0,50.0,30.22,SW,236,0.0,0.0,96,0.00,,,0.00,,2013-05-08 07:52:00,
2013-05-08 04:02:00,52.0,51.0,30.22,SW,236,0.0,0.0,96,0.00,,,0.00,,2013-05-08 08:02:00,
2013-05-08 04:12:00,52.0,51.0,30.22,SW,236,0.0,0.0,96,0.00,,,0.00,,2013-05-08 08:12:00,
2013-05-08 04:22:00,52.0,51.0,30.22,SW,236,0.0,0.0,96,0.00,,,0.00,,2013-05-08 08:22:00,
2013-05-08 04:32:00,53.0,52.0,30.21,SW,236,0.0,0.0,96,0.00,,,0.00,,2013-05-08 08:32:00,
2013-05-08 04:42:00,53.0,52.0,30.21,SW,236,0.0,0.0,96,0.00,,,0.00,,2013-05-08 08:42:00,
2013-05-08 04:52:00,53.0,52.0,30.21,SW,236,0.0,0.0,96,0.00,,,0.00,,2013-05-08 08:52:00,
2013-05-08 05:02:00,53.0,52.0,30.21,SW,236,0.0,0.0,96,0.00,,,0.00,,2013-05-08 09:02:00,
2013-05-08 05:11:00,53.0,52.0,30.21,SW,236,0.0,0.0,96,0.00,,,0.00,,2013-05-08 09:11:00,
2013-05-08 05:21:00,53.0,52.0,30.21,SW,236,0.0,0.0,95,0.00,,,0.00,,2013-05-08 09:21:00,
2013-05-08 05:32:00,52.0,51.0,30.21,SW,236,0.0,0.0,95,0.00,,,0.00,,2013-05-08 09:32:00,
2013-05-08 05:42:00,52.0,51.0,30.21,SW,236,0.0,0.0,95,0.00,,,0.00,,2013-05-08 09:42:00,
2013-05-08 05:53:00,52.0,51.0,30.21,SW,236,0.0,0.0,96,0.00,,,0.00,,2013-05-08 09:53:00,
2013-05-08 06:02:00,52.0,51.0,30.22,SW,236,0.0,0.0,96,0.00,,,0.00,,2013-05-08 10:02:00,
2013-05-08 06:12:00,52.0,51.0,30.22,SW,236,0.0,0.0,96,0.00,,,0.00,,2013-05-08 10:12:00,
2013-05-08 06:23:00,53.0,52.0,30.22,SW,236,0.0,0.0,97,0.00,,,0.00,,2013-05-08 10:23:00,
2013-05-08 06:33:00,53.0,52.0,30.23,SW,236,0.0,0.0,97,0.00,,,0.00,,2013-05-08 10:33:00,
2013-05-08 06:42:00,53.0,52.0,30.23,SW,236,0.0,0.0,97,0.00,,,0.00,,2013-05-08 10:42:00,
2013-05-08 06:53:00,53.0,52.0,30.23,SW,236,0.0,0.0,96,0.00,,,0.00,,2013-05-08 10:53:00,
2013-05-08 07:02:00,55.0,54.0,30.24,SW,224,0.0,0.0,97,0.00,,,0.00,,2013-05-08 11:02:00,
2013-05-08 07:11:00,55.0,54.0,30.24,SW,224,0.0,0.0,97,0.00,,,0.00,,2013-05-08 11:11:00,
2013-05-08 07:22:00,56.0,55.0,30.25,NNE,23,0.0,1.0,97,0.00,,,0.00,,2013-05-08 11:22:00,
2013-05-08 07:32:00,57.0,56.0,30.24,NNE,31,0.0,1.0,95,0.00,,,0.00,,2013-05-08 11:32:00,
2013-05-08 07:42:00,57.0,56.0,30.24,NNE,31,0.0,1.0,95,0.00,,,0.00,,2013-05-08 11:42:00,
2013-05-08 07:52:00,58.0,56.0,30.25,NNE,20,1.0,2.0,94,0.00,,,0.00,,2013-05-08 11:52:00,
2013-05-08 08:02:00,58.0,56.0,30.24,North,359,1.0,3.0,93,0.00,,,0.00,,2013-05-08 12:02:00,
2013-05-08 08:11:00,58.0,56.0,30.24,North,359,1.0,3.0,93,0.00,,,0.00,,2013-05-08 12:11:00,
2013-05-08 08:21:00,59.0,57.0,30.24,North,5,0.0,1.0,92,0.00,,,0.00,,2013-05-08 12:21:00,
2013-05-08 08:32:00,59.0,56.0,30.24,NNE,13,0.0,2.0,91,0.00,,,0.00,,2013-05-08 12:32:00,
2013-05-08 08:42:00,59.0,56.0,30.24,NNE,13,0.0,2.0,91,0.00,,,0.00,,2013-05-08 12:42:00,
2013-05-08 08:52:00,60.0,57.0,30.24,North,9,1.0,3.0,90,0.00,,,0.00,,2013-05-08 12:52:00,
2013-05-08 09:01:00,61.0,58.0,30.24,NNE,15,0.0,1.0,89,0.00,,,0.00,,2013-05-08 13:01:00,
2013-05-08 09:12:00,61.0,58.0,30.24,NNE,15,0.0,1.0,89,0.00,,,0.00,,2013-05-08 13:12:00,
2013-05-08 09:21:00,62.0,58.0,30.24,NNE,18,0.0,1.0,87,0.00,,,0.00,,2013-05-08 13:21:00,
2013-05-08 09:32:00,63.0,59.0,30.23,North,9,0.0,1.0,87,0.00,,,0.00,,2013-05-08 13:32:00,
2013-05-08 09:42:00,63.0,59.0,30.23,North,9,0.0,1.0,87,0.00,,,0.00,,2013-05-08 13:42:00,
2013-05-08 09:52:00,64.0,59.0,30.23,NE,39,0.0,1.0,84,0.00,,,0.00,,2013-05-08 13:52:00,
2013-05-08 10:02:00,65.0,60.0,30.23,North,1,1.0,2.0,83,0.00,,,0.00,,2013-05-08 14:02:00,
2013-05-08 10:11:00,65.0,60.0,30.23,North,1,1.0,2.0,83,0.00,,,0.00,,2013-05-08 14:11:00,
2013-05-08 10:22:00,65.0,59.0,30.23,NNE,21,0.0,3.0,82,0.00,,,0.00,,2013-05-08 14:22:00,
2013-05-08 10:32:00,66.0,60.0,30.23,North,3,1.0,2.0,81,0.00,,,0.00,,2013-05-08 14:32:00,
2013-05-08 10:42:00,66.0,60.0,30.23,North,3,1.0,2.0,81,0.00,,,0.00,,2013-05-08 14:42:00,
2013-05-08 10:52:00,67.0,60.0,30.22,North,6,0.0,2.0,79,0.00,,,0.00,,2013-05-08 14:52:00,
2013-05-08 11:02:00,67.0,60.0,30.22,North,360,0.0,2.0,78,0.00,,,0.00,,2013-05-08 15:02:00,
2013-05-08 11:11:00,67.0,60.0,30.22,North,360,0.0,2.0,78,0.00,,,0.00,,2013-05-08 15:11:00,
2013-05-08 11:22:00,67.0,60.0,30.22,NE,39,0.0,3.0,79,0.00,,,0.00,,2013-05-08 15:22:00,
2013-05-08 11:33:00,68.0,61.0,30.22,NE,44,0.0,3.0,78,0.00,,,0.00,,2013-05-08 15:33:00,
2013-05-08 11:42:00,68.0,61.0,30.22,NE,44,0.0,3.0,78,0.00,,,0.00,,2013-05-08 15:42:00,
2013-05-08 11:53:00,68.0,61.0,30.21,ENE,61,0.0,1.0,77,0.00,,,0.00,,2013-05-08 15:53:00,
2013-05-08 12:03:00,67.0,60.0,30.21,NNE,31,0.0,2.0,79,0.00,,,0.00,,2013-05-08 16:03:00,
2013-05-08 12:12:00,67.0,60.0,30.21,NNE,31,0.0,2.0,79,0.00,,,0.00,,2013-05-08 16:12:00,
2013-05-08 12:23:00,68.0,62.0,30.19,NNE,27,1.0,3.0,80,0.00,,,0.00,,2013-05-08 16:23:00,
2013-05-08 12:33:00,69.0,62.0,30.19,East,84,0.0,4.0,78,0.00,,,0.00,,2013-05-08 16:33:00,
2013-05-08 12:42:00,69.0,62.0,30.19,East,84,0.0,4.0,78,0.00,,,0.00,,2013-05-08 16:42:00,
2013-05-08 12:52:00,69.0,61.0,30.18,ESE,114,0.0,3.0,76,0.00,,,0.00,,2013-05-08 16:52:00,
2013-05-08 13:02:00,70.0,61.0,30.17,NNE,20,1.0,2.0,73,0.00,,,0.00,,2013-05-08 17:02:00,
2013-05-08 13:12:00,70.0,61.0,30.17,NNE,20,1.0,2.0,73,0.00,,,0.00,,2013-05-08 17:12:00,
2013-05-08 13:22:00,70.0,61.0,30.16,NNE,23,0.0,2.0,74,0.00,,,0.00,,2013-05-08 17:22:00,
2013-05-08 13:32:00,70.0,61.0,30.16,NNE,23,0.0,2.0,74,0.00,,,0.00,,2013-05-08 17:32:00,
2013-05-08 13:41:00,70.0,61.0,30.16,NNE,23,0.0,2.0,74,0.00,,,0.00,,2013-05-08 17:41:00,
2013-05-08 13:52:00,70.0,61.0,30.16,NE,52,0.0,3.0,72,0.00,,,0.00,,2013-05-08 17:52:00,
2013-05-08 14:02:00,69.0,60.0,30.14,North,355,0.0,2.0,73,0.00,,,0.00,,2013-05-08 18:02:00,
2013-05-08 14:12:00,69.0,60.0,30.14,North,355,0.0,2.0,73,0.00,,,0.00,,2013-05-08 18:12:00,
2013-05-08 14:21:00,69.0,60.0,30.14,ENE,64,1.0,7.0,73,0.00,,,0.00,,2013-05-08 18:21:00,
2013-05-08 14:32:00,68.0,60.0,30.15,ENE,69,0.0,3.0,75,0.00,,,0.00,,2013-05-08 18:32:00,
2013-05-08 14:42:00,68.0,60.0,30.15,ENE,69,0.0,3.0,75,0.00,,,0.00,,2013-05-08 18:42:00,
2013-05-08 14:52:00,65.0,61.0,30.16,ESE,115,0.0,2.0,87,0.03,,,0.03,,2013-05-08 18:52:00,
2013-05-08 15:01:00,64.0,61.0,30.15,ENE,73,0.0,1.0,91,0.06,,,0.06,,2013-05-08 19:01:00,
2013-05-08 15:11:00,64.0,61.0,30.15,ENE,73,0.0,1.0,91,0.06,,,0.06,,2013-05-08 19:11:00,
2013-05-08 15:22:00,63.0,61.0,30.14,West,261,0.0,1.0,93,0.23,,,0.23,,2013-05-08 19:22:00,
2013-05-08 15:32:00,63.0,61.0,30.14,West,260,0.0,0.0,94,0.28,,,0.28,,2013-05-08 19:32:00,
2013-05-08 15:42:00,63.0,61.0,30.14,West,260,0.0,0.0,94,0.28,,,0.28,,2013-05-08 19:42:00,
2013-05-08 15:52:00,63.0,61.0,30.14,SW,218,0.0,1.0,94,0.25,,,0.29,,2013-05-08 19:52:00,
2013-05-08 16:02:00,62.0,61.0,30.14,East,84,0.0,5.0,95,0.22,,,0.29,,2013-05-08 20:02:00,
2013-05-08 16:11:00,62.0,61.0,30.14,East,84,0.0,5.0,95,0.22,,,0.29,,2013-05-08 20:11:00,
2013-05-08 16:22:00,62.0,61.0,30.14,ESE,115,0.0,1.0,95,0.05,,,0.29,,2013-05-08 20:22:00,
2013-05-08 16:32:00,62.0,61.0,30.15,WSW,250,0.0,2.0,95,0.01,,,0.29,,2013-05-08 20:32:00,
2013-05-08 16:42:00,62.0,61.0,30.15,WSW,250,0.0,1.0,95,0.00,,,0.29,,2013-05-08 20:42:00,
2013-05-08 16:52:00,62.0,61.0,30.15,WSW,250,0.0,1.0,95,0.00,,,0.29,,2013-05-08 20:52:00,
2013-05-08 17:01:00,62.0,61.0,30.15,WSW,250,0.0,0.0,96,0.08,,,0.37,,2013-05-08 21:01:00,
2013-05-08 17:12:00,62.0,61.0,30.15,WSW,250,0.0,0.0,96,0.08,,,0.37,,2013-05-08 21:12:00,
2013-05-08 17:21:00,62.0,61.0,30.14,WSW,252,0.0,1.0,95,0.08,,,0.37,,2013-05-08 21:21:00,
2013-05-08 17:33:00,62.0,61.0,30.14,WNW,297,0.0,2.0,95,0.08,,,0.37,,2013-05-08 21:33:00,
2013-05-08 17:43:00,61.0,60.0,30.14,WNW,296,0.0,0.0,95,0.07,,,0.37,,2013-05-08 21:43:00,
2013-05-08 17:53:00,61.0,60.0,30.14,WNW,296,0.0,0.0,95,0.07,,,0.37,,2013-05-08 21:53:00,
2013-05-08 18:03:00,61.0,60.0,30.14,WNW,296,0.0,1.0,95,0.05,,,0.42,,2013-05-08 22:03:00,
2013-05-08 18:12:00,61.0,60.0,30.14,WNW,296,0.0,1.0,95,0.05,,,0.42,,2013-05-08 22:12:00,
2013-05-08 18:22:00,61.0,60.0,30.14,WNW,297,0.0,0.0,96,0.05,,,0.42,,2013-05-08 22:22:00,
2013-05-08 18:33:00,61.0,60.0,30.13,WNW,297,0.0,1.0,96,0.05,,,0.42,,2013-05-08 22:33:00,
2013-05-08 18:42:00,60.0,59.0,30.13,NW,325,0.0,1.0,95,0.04,,,0.42,,2013-05-08 22:42:00,
2013-05-08 18:53:00,60.0,59.0,30.13,NW,325,0.0,1.0,95,0.04,,,0.42,,2013-05-08 22:53:00,
2013-05-08 19:01:00,60.0,59.0,30.12,SW,217,0.0,2.0,96,0.00,,,0.42,,2013-05-08 23:01:00,
2013-05-08 19:12:00,60.0,59.0,30.12,SW,217,0.0,2.0,96,0.00,,,0.42,,2013-05-08 23:12:00,
2013-05-08 19:22:00,60.0,59.0,30.12,SW,217,0.0,0.0,96,0.00,,,0.42,,2013-05-08 23:22:00,
2013-05-08 19:32:00,60.0,59.0,30.12,North,9,0.0,1.0,96,0.00,,,0.42,,2013-05-08 23:32:00,
2013-05-08 19:42:00,59.0,58.0,30.13,North,8,0.0,0.0,97,0.00,,,0.42,,2013-05-08 23:42:00,
2013-05-08 19:52:00,59.0,58.0,30.13,North,8,0.0,0.0,97,0.00,,,0.42,,2013-05-08 23:52:00,
2013-05-08 20:02:00,59.0,58.0,30.13,North,6,0.0,0.0,97,0.00,,,0.42,,2013-05-09 00:02:00,
2013-05-08 20:12:00,59.0,58.0,30.13,North,6,0.0,0.0,97,0.00,,,0.42,,2013-05-09 00:12:00,
2013-05-08 20:21:00,59.0,58.0,30.13,North,8,0.0,1.0,97,0.00,,,0.42,,2013-05-09 00:21:00,
2013-05-08 20:32:00,59.0,58.0,30.13,North,8,0.0,0.0,97,0.00,,,0.42,,2013-05-09 00:32:00,
2013-05-08 20:42:00,59.0,58.0,30.13,North,6,0.0,0.0,97,0.00,,,0.42,,2013-05-09 00:42:00,
2013-05-08 20:52:00,59.0,58.0,30.13,North,6,0.0,0.0,97,0.00,,,0.42,,2013-05-09 00:52:00,
2013-05-08 21:01:00,59.0,58.0,30.14,North,6,0.0,1.0,97,0.00,,,0.42,,2013-05-09 01:01:00,
2013-05-08 21:12:00,59.0,58.0,30.14,North,6,0.0,1.0,97,0.00,,,0.42,,2013-05-09 01:12:00,
2013-05-08 21:22:00,59.0,58.0,30.14,North,6,0.0,0.0,97,0.00,,,0.42,,2013-05-09 01:22:00,
2013-05-08 21:32:00,59.0,58.0,30.14,East,79,0.0,0.0,97,0.00,,,0.42,,2013-05-09 01:32:00,
2013-05-08 21:42:00,59.0,58.0,30.14,East,79,0.0,0.0,97,0.00,,,0.42,,2013-05-09 01:42:00,
2013-05-08 21:53:00,59.0,58.0,30.14,East,79,0.0,0.0,97,0.00,,,0.42,,2013-05-09 01:53:00,
2013-05-08 22:02:00,59.0,58.0,30.15,East,79,0.0,0.0,97,0.00,,,0.42,,2013-05-09 02:02:00,
2013-05-08 22:12:00,59.0,58.0,30.15,East,79,0.0,0.0,97,0.00,,,0.42,,2013-05-09 02:12:00,
2013-05-08 22:22:00,59.0,58.0,30.15,East,79,0.0,0.0,97,0.00,,,0.42,,2013-05-09 02:22:00,
2013-05-08 22:33:00,59.0,58.0,30.15,East,79,0.0,0.0,97,0.00,,,0.42,,2013-05-09 02:33:00,
2013-05-08 22:42:00,59.0,58.0,30.15,East,79,0.0,0.0,97,0.00,,,0.42,,2013-05-09 02:42:00,
2013-05-08 22:52:00,59.0,58.0,30.15,East,79,0.0,0.0,97,0.00,,,0.42,,2013-05-09 02:52:00,
2013-05-08 23:02:00,58.0,57.0,30.14,NW,308,0.0,0.0,97,0.01,,,0.43,,2013-05-09 03:02:00,
2013-05-08 23:11:00,58.0,57.0,30.14,NW,308,0.0,0.0,97,0.01,,,0.43,,2013-05-09 03:11:00,
2013-05-08 23:21:00,58.0,57.0,30.14,NW,308,0.0,0.0,97,0.01,,,0.43,,2013-05-09 03:21:00,
2013-05-08 23:33:00,58.0,57.0,30.14,NW,308,0.0,0.0,97,0.01,,,0.43,,2013-05-09 03:33:00,
2013-05-08 23:43:00,58.0,57.0,30.14,NW,308,0.0,0.0,97,0.01,,,0.43,,2013-05-09 03:43:00,
2013-05-08 23:53:00,57.0,56.0,30.14,NW,308,0.0,0.0,97,0.01,,,0.43,,2013-05-09 03:53:00,